Location: Broekland
(52.3610°N, 6.2005°E)
Time: 16:14:20
(UTC+00:00)

Meteor 2-9 Rocket - Pass Details

Date: 19 May 2025
Orbit: 791 x 893 km, 81.3° (Epoch: 16 June)

Event Time Altitude Azimuth Distance (km) Brightness Sun altitude
Rises 22:12:27 0° 344° (NNW) 3,398 9.2 -15.6°
Reaches altitude 10° 22:14:52 10° 342° (NNW) 2,475 8.0 -15.7°
Maximum altitude 22:20:24 64° 263° (W) 954 4.5 -16.0°
Enters shadow 22:24:04 22° 188° (S) 1,793 5.4 -16.2°
